Find Starlink 5163

NORAD ID: 54054 Int'l Des: 2022-136 Owner: SPXS Country: US Constellation: starlink operational
LEOCIRCULAR

当前视图

正在加载3D地球...

About Starlink 5163

Starlink 5163 (NORAD 54054) is a starlink constellation satellite (v1.5) launched Oct 20, 2022 by SPXS of US. It operates in LEO, CIRCULAR orbit with a mass of 305.00 kg.

关于 Starlink 5163

正在加载描述...

即将过境

Passes for default location (London). Set your location on the main map for personalized predictions.

高度历史

Loading altitude history...

两行轨道根数

1 54054U 22136D 26169.91056627 .00004802 00000-0 31292-3 0 9996
2 54054 53.1797 249.7590 0000894 88.0451 272.0643 15.09626001202126
Epoch: Jun 18, 2026 • Age: 14 hours

当前状态

高度 552.9 km
速度 7.58 km/s
星下点 -44.45°S, 31.99°E
发射日期 Oct 20, 2022
运行时间 3.6 years
类型 internet

技术详情

分类 Payload
质量 305.00 kg
干质量 290.00 kg
总质量 305.00 kg
长度 0.20 m
直径 2.80 m
跨度 9.00 m
形状 Box + pan
制造商 SPXS
平台类型 Starlink
阶段状态 In Orbit
所有者/国家 SPXS/US

Most Searched